Location: Stony Creek
(40.9500°S, 175.8500°E)
Time: 08:51:25
(UTC+00:00)

SL-4 R/B - Pass Details

Date: 15 May 2026
Orbit: 378 x 503 km, 51.6° (Epoch: 9 June)

Event Time Altitude Azimuth Distance (km) Brightness Sun altitude
Exits shadow 18:27:24 13° 235° (SW) 1,323 3.4 -9.7°
Maximum altitude 18:30:20 86° 319° (NW) 410 1.3 -9.2°
Drops below altitude 10° 18:33:32 10° 52° (NE) 1,430 5.5 -8.6°
Sets 18:35:33 0° 52° (NE) 2,268 6.7 -8.2°
